FW5359 Weather Reports


Display with metric or nautical units.
time (UTC)temp
F
wind
direction
speed
MPH
gust
MPH
rain 1hr
in
rain 24hr
in
rain mn
in
humidity
%
barometer
mb
20260905073237 79 159 1.0 4.0 0.00 0.00 0.00 85 1015.2
20260905072730 79 162 1.0 5.0 0.00 0.00 0.00 84 1015.3
20260905072225 79 162 1.0 7.0 0.00 0.00 0.00 84 1015.4
20260905071718 79 159 1.0 7.0 0.00 0.00 0.00 84 1015.5
20260905071213 80 155 2.0 6.0 0.00 0.00 0.00 84 1015.4
20260905070707 80 155 1.0 6.0 0.00 0.00 0.00 84 1015.5
20260905070201 80 152 1.0 6.0 0.00 0.00 0.00 84 1015.4
20260905065925 80 150 2.0 5.0 0.00 0.00 0.00 83 1015.4
20260905065149 80 161 1.0 5.0 0.00 0.00 0.00 83 1015.5
20260905064643 80 143 1.0 3.0 0.00 0.00 0.00 83 1015.5
20260905064408 80 143 1.0 5.0 0.00 0.00 0.00 83 1015.5
20260905063631 80 142 2.0 5.0 0.00 0.00 0.00 82 1015.4
20260905063126 80 171 1.0 5.0 0.00 0.00 0.00 82 1015.5
20260905062620 80 155 1.0 7.0 0.00 0.00 0.00 82 1015.5
20260905062343 80 157 1.0 7.0 0.00 0.00 0.00 81 1015.5
20260905061607 80 165 2.0 6.0 0.00 0.00 0.00 81 1015.5
20260905061332 80 202 2.0 8.0 0.00 0.00 0.00 81 1015.5
20260905060556 81 126 2.0 9.0 0.00 0.00 0.00 80 1015.5
20260905060049 81 161 2.0 9.0 0.00 0.00 0.00 80 1015.5
20260905055543 81 153 2.0 8.0 0.00 0.00 0.00 79 1015.5
20260905055037 81 200 3.0 9.0 0.00 0.00 0.00 79 1015.5
20260905054531 81 170 3.0 9.0 0.00 0.00 0.00 78 1015.4
20260905054025 81 128 2.0 7.0 0.00 0.00 0.00 78 1015.5
20260905053519 81 155 2.0 7.0 0.00 0.00 0.00 77 1015.5
20260905053244 82 122 1.0 5.0 0.00 0.00 0.00 76 1015.5
20260905052738 82 165 2.0 5.0 0.00 0.00 0.00 76 1015.5
20260905052001 82 165 2.0 5.0 0.00 0.00 0.00 75 1015.6
20260905051727 82 166 2.0 6.0 0.00 0.00 0.00 74 1015.6
20260905051219 82 167 2.0 6.0 0.00 0.00 0.00 74 1015.5
20260905050443 82 169 2.0 10.0 0.00 0.00 0.00 73 1015.6
20260905045937 83 169 2.0 10.0 0.00 0.00 0.00 73 1015.5
20260905045432 83 150 2.0 7.0 0.00 0.00 0.00 72 1015.5
20260905045156 83 148 2.0 6.0 0.00 0.00 0.00 71 1015.5
20260905044420 83 184 3.0 11.0 0.00 0.00 0.00 70 1015.5
20260905043914 83 128 3.0 11.0 0.00 0.00 0.00 70 1015.6
20260905043407 83 151 2.0 8.0 0.00 0.00 0.00 69 1015.5
20260905043134 83 130 2.0 6.0 0.00 0.00 0.00 69 1015.5
20260905042356 83 148 2.0 7.0 0.00 0.00 0.00 69 1015.5
20260905041850 83 155 2.0 7.0 0.00 0.00 0.00 69 1015.5
20260905041616 83 128 2.0 6.0 0.00 0.00 0.00 69 1015.5
20260905040839 83 119 2.0 6.0 0.00 0.00 0.00 69 1015.3
20260905040332 83 113 1.0 4.0 0.00 0.00 0.00 69 1015.4
20260905035826 83 113 1.0 4.0 0.00 0.00 0.00 69 1015.5
20260905035320 83 113 1.0 4.0 0.00 0.00 0.00 69 1015.5
20260905034814 83 112 1.0 3.0 0.00 0.00 0.00 68 1015.4
20260905034308 83 112 2.0 6.0 0.00 0.00 0.00 68 1015.5
20260905033802 83 112 2.0 6.0 0.00 0.00 0.00 68 1015.4
20260905033256 84 110 2.0 6.0 0.00 0.00 0.00 68 1015.4
20260905032750 84 107 3.0 12.0 0.00 0.00 0.00 68 1015.3
20260905032244 83 131 2.0 12.0 0.00 0.00 0.00 68 1015.2
20260905031738 83 137 2.0 8.0 0.00 0.00 0.00 68 1015.2
20260905031503 83 120 2.0 8.0 0.00 0.00 0.00 69 1015.2
20260905030726 83 109 1.0 3.0 0.00 0.00 0.00 69 1015.0
20260905030220 83 110 1.0 4.0 0.00 0.00 0.00 69 1015.0
20260905025944 83 110 1.0 6.0 0.00 0.00 0.00 69 1015.0
20260905025208 83 108 2.0 7.0 0.00 0.00 0.00 69 1014.9
20260905024702 83 109 2.0 7.0 0.00 0.00 0.00 69 1014.8
20260905023650 83 118 2.0 7.0 0.00 0.00 0.00 69 1014.6
20260905023144 83 119 1.0 6.0 0.00 0.00 0.00 69 1014.5
20260905022644 83 91 1.0 6.0 0.00 0.00 0.00 69 1014.3
20260905022144 83 88 1.0 3.0 0.00 0.00 0.00 69 1014.4
20260905021644 83 88 1.0 3.0 0.00 0.00 0.00 69 1014.3
20260905021414 83 87 1.0 3.0 0.00 0.00 0.00 70 1014.2
20260905020642 83 87 0.0 2.0 0.00 0.00 0.00 70 1014.1
20260905020142 83 88 0.0 3.0 0.00 0.00 0.00 69 1014.0
20260905015645 83 88 1.0 3.0 0.00 0.00 0.00 69 1014.0
20260905015142 83 88 1.0 3.0 0.00 0.00 0.00 69 1014.0
20260905014640 83 88 0.0 3.0 0.00 0.00 0.00 68 1014.1
20260905014140 83 88 0.0 2.0 0.00 0.00 0.00 68 1014.0
20260905013640 84 88 0.0 2.0 0.00 0.00 0.00 68 1013.9
20260905013138 84 88 0.0 2.0 0.00 0.00 0.00 67 1013.8
20260905012638 84 88 1.0 3.0 0.00 0.00 0.00 67 1013.7
20260905012138 84 88 1.0 3.0 0.00 0.00 0.00 66 1013.8
20260905011908 85 88 0.0 0.0 0.00 0.00 0.00 66 1013.7
20260905011138 85 88 0.0 0.0 0.00 0.00 0.00 66 1013.7
20260905010636 85 88 0.0 1.0 0.00 0.00 0.00 66 1013.7
20260905010138 85 88 1.0 3.0 0.00 0.00 0.00 65 1013.7
20260905005906 85 88 1.0 3.0 0.00 0.00 0.00 65 1013.7
20260905005134 85 88 1.0 3.0 0.00 0.00 0.00 65 1013.7
20260905004906 85 88 0.0 3.0 0.00 0.00 0.00 65 1013.7
20260905004132 85 88 0.0 2.0 0.00 0.00 0.00 65 1013.6
20260905003632 86 88 1.0 2.0 0.00 0.00 0.00 65 1013.7
20260905003132 86 88 1.0 2.0 0.00 0.00 0.00 65 1013.7
20260905002632 86 88 1.0 3.0 0.00 0.00 0.00 65 1013.6
20260905002132 86 88 1.0 5.0 0.00 0.00 0.00 65 1013.6
20260905001132 86 87 1.0 5.0 0.00 0.00 0.00 64 1013.6
20260905000632 87 80 1.0 5.0 0.00 0.00 0.00 64 1013.5
20260905000132 87 74 1.0 4.0 0.00 0.00 0.00 64 1013.5
20260904235632 87 122 2.0 7.0 0.00 0.00 0.00 64 1013.3
20260904235132 87 121 2.0 7.0 0.00 0.00 0.00 64 1013.3
20260904234631 87 107 1.0 3.0 0.00 0.00 0.00 64 1013.2
20260904234132 86 94 1.0 3.0 0.00 0.00 0.00 64 1013.2
20260904233902 86 94 1.0 3.0 0.00 0.00 0.00 63 1013.2
20260904233130 86 94 1.0 3.0 0.00 0.00 0.00 63 1013.2
20260904232623 86 94 1.0 4.0 0.00 0.00 0.00 63 1013.3
20260904232117 87 93 2.0 4.0 0.00 0.00 0.00 64 1013.2
20260904231841 87 93 1.0 4.0 0.00 0.00 0.00 63 1013.2
20260904231105 87 102 1.0 4.0 0.00 0.00 0.00 63 1013.2
20260904230559 87 101 1.0 3.0 0.00 0.00 0.00 64 1013.2
20260904230053 87 101 2.0 5.0 0.00 0.00 0.00 63 1013.2
20260904225547 87 102 2.0 5.0 0.00 0.00 0.00 63 1013.3
20260904225041 87 112 1.0 5.0 0.00 0.00 0.00 63 1013.4
20260904224535 87 138 1.0 5.0 0.00 0.00 0.00 65 1013.4
20260904224027 87 85 1.0 4.0 0.00 0.00 0.00 67 1013.5
20260904223521 86 86 2.0 7.0 0.00 0.00 0.00 67 1013.5
20260904223246 87 76 2.0 7.0 0.00 0.00 0.00 68 1013.7
20260904222739 87 88 2.0 5.0 0.00 0.00 0.00 68 1013.7
20260904222002 87 85 2.0 4.0 0.00 0.00 0.00 70 1013.7
20260904221457 87 108 2.0 6.0 0.00 0.00 0.00 70 1013.8
20260904220951 87 103 3.0 8.0 0.00 0.00 0.00 70 1013.8
20260904220444 87 90 2.0 8.0 0.00 0.00 0.00 70 1013.9
20260904215939 86 94 2.0 8.0 0.00 0.00 0.00 70 1013.9
20260904215433 86 127 2.0 7.0 0.00 0.00 0.00 71 1013.9
20260904214925 86 115 2.0 7.0 0.00 0.00 0.00 71 1014.0
20260904214419 86 128 2.0 6.0 0.00 0.00 0.00 71 1014.1
20260904214145 86 86 2.0 4.0 0.00 0.00 0.00 72 1014.2
20260904213407 86 98 2.0 5.0 0.00 0.00 0.00 72 1014.2
20260904212901 86 67 2.0 6.0 0.00 0.00 0.00 73 1014.2
20260904212400 86 89 2.0 7.0 0.00 0.00 0.00 73 1014.3
20260904211849 86 117 2.0 7.0 0.00 0.00 0.00 73 1014.4
20260904210837 86 113 1.0 6.0 0.00 0.00 0.00 71 1014.4
20260904210330 86 115 1.0 6.0 0.00 0.00 0.00 71 1014.5
20260904205825 86 113 1.0 6.0 0.00 0.00 0.00 71 1014.6
20260904205319 86 113 1.0 6.0 0.00 0.00 0.00 71 1014.5
20260904204813 86 117 1.0 5.0 0.00 0.00 0.00 71 1014.6
20260904204307 86 119 2.0 5.0 0.00 0.00 0.00 71 1014.7
20260904203801 86 116 2.0 5.0 0.00 0.00 0.00 70 1014.7
20260904203255 86 128 2.0 8.0 0.00 0.00 0.00 70 1014.8
20260904202749 86 120 2.0 8.0 0.00 0.00 0.00 69 1014.9
20260904202243 87 89 2.0 7.0 0.00 0.00 0.00 69 1014.9
20260904201737 87 127 2.0 8.0 0.00 0.00 0.00 69 1014.9
20260904201230 87 93 2.0 8.0 0.00 0.00 0.00 69 1014.9
20260904200725 87 72 2.0 8.0 0.00 0.00 0.00 68 1014.9
20260904200451 87 119 2.0 8.0 0.00 0.00 0.00 68 1015.0
20260904195713 87 142 2.0 8.0 0.00 0.00 0.00 67 1014.9
20260904195207 87 100 1.0 8.0 0.00 0.00 0.00 68 1015.0
20260904194701 87 119 2.0 7.0 0.00 0.00 0.00 67 1015.0
20260904194425 87 119 2.0 7.0 0.00 0.00 0.00 67 1015.0
20260904193920 87 148 2.0 6.0 0.00 0.00 0.00 67 1015.2
20260904193143 87 136 2.0 6.0 0.00 0.00 0.00 66 1015.2
20260904192638 87 30 2.0 6.0 0.00 0.00 0.00 67 1015.3
20260904192130 87 177 2.0 7.0 0.00 0.00 0.00 66 1015.3
20260904191624 88 207 1.0 7.0 0.00 0.00 0.00 66 1015.3
20260904191118 88 93 2.0 5.0 0.00 0.00 0.00 67 1015.4
20260904190613 88 132 1.0 5.0 0.00 0.00 0.00 67 1015.4
20260904190107 87 165 1.0 6.0 0.00 0.00 0.00 68 1015.4
20260904185601 87 168 2.0 8.0 0.00 0.00 0.00 66 1015.4
20260904185055 87 116 2.0 7.0 0.00 0.00 0.00 66 1015.5
20260904184549 88 121 2.0 8.0 0.00 0.00 0.00 67 1015.5
20260904184043 88 150 2.0 8.0 0.00 0.00 0.00 66 1015.6
20260904183537 88 155 2.0 8.0 0.00 0.00 0.00 67 1015.6
20260904183030 88 169 2.0 8.0 0.00 0.00 0.00 67 1015.6
20260904182757 88 115 3.0 7.0 0.00 0.00 0.00 67 1015.7
20260904182023 88 84 3.0 7.0 0.00 0.00 0.00 66 1015.7
20260904181755 88 197 3.0 11.0 0.00 0.00 0.00 66 1015.8
20260904181021 89 210 3.0 11.0 0.00 0.00 0.00 65 1015.9
20260904180521 89 131 3.0 9.0 0.00 0.00 0.00 64 1015.9
20260904180021 89 126 3.0 9.0 0.00 0.00 0.00 65 1015.9
20260904175521 89 143 3.0 9.0 0.00 0.00 0.00 66 1015.9
20260904175020 88 126 3.0 9.0 0.00 0.00 0.00 67 1015.9
20260904174520 88 157 3.0 8.0 0.00 0.00 0.00 66 1015.9
20260904174021 88 109 3.0 12.0 0.00 0.00 0.00 68 1016.0
20260904173521 88 163 3.0 12.0 0.00 0.00 0.00 67 1016.0
20260904173021 88 117 3.0 10.0 0.00 0.00 0.00 68 1016.1
20260904172521 88 163 3.0 10.0 0.00 0.00 0.00 66 1016.2
20260904172017 88 205 3.0 9.0 0.00 0.00 0.00 67 1016.3
20260904171517 88 115 2.0 9.0 0.00 0.00 0.00 67 1016.3
20260904171017 88 136 2.0 9.0 0.00 0.00 0.00 69 1016.4
20260904170017 87 167 2.0 7.0 0.00 0.00 0.00 70 1016.4
20260904165518 87 153 3.0 7.0 0.00 0.00 0.00 70 1016.5
20260904165018 86 72 3.0 9.0 0.00 0.00 0.00 71 1016.6
20260904164517 86 169 3.0 9.0 0.00 0.00 0.00 72 1016.6
20260904164018 86 128 3.0 9.0 0.00 0.00 0.00 71 1016.6
20260904163514 86 144 2.0 9.0 0.00 0.00 0.00 71 1016.6
20260904163012 87 124 2.0 5.0 0.00 0.00 0.00 70 1016.5
20260904162513 87 101 1.0 6.0 0.00 0.00 0.00 70 1016.6
20260904162014 87 146 2.0 8.0 0.00 0.00 0.00 72 1016.5
20260904161512 86 157 2.0 8.0 0.00 0.00 0.00 73 1016.5
20260904161243 85 153 2.0 9.0 0.00 0.00 0.00 74 1016.5
20260904160509 85 157 3.0 9.0 0.00 0.00 0.00 74 1016.5
20260904160009 85 94 3.0 11.0 0.00 0.00 0.00 75 1016.6
20260904155509 85 115 3.0 11.0 0.00 0.00 0.00 74 1016.6
20260904155242 85 171 3.0 7.0 0.00 0.00 0.00 74 1016.6
20260904154509 85 171 3.0 8.0 0.00 0.00 0.00 74 1016.6
20260904154007 85 119 3.0 10.0 0.00 0.00 0.00 76 1016.5
20260904153507 84 115 3.0 10.0 0.00 0.00 0.00 77 1016.4
20260904153007 84 71 2.0 7.0 0.00 0.00 0.00 78 1016.4
20260904152509 83 123 2.0 7.0 0.00 0.00 0.00 79 1016.3
20260904152002 82 126 2.0 10.0 0.00 0.00 0.00 80 1016.2
20260904151456 82 155 2.0 10.0 0.00 0.00 0.00 79 1016.2
20260904150950 83 149 1.0 8.0 0.00 0.00 0.00 80 1016.2
20260904150444 83 225 2.0 7.0 0.00 0.00 0.00 79 1016.2
20260904145939 83 91 1.0 7.0 0.00 0.00 0.00 79 1016.2
20260904145433 82 116 2.0 7.0 0.00 0.00 0.00 81 1016.2
20260904144927 82 138 2.0 10.0 0.00 0.00 0.00 81 1016.2
20260904144422 82 146 2.0 10.0 0.00 0.00 0.00 83 1016.3
20260904143915 81 132 2.0 7.0 0.00 0.00 0.00 84 1016.2
20260904143408 80 176 3.0 8.0 0.00 0.00 0.00 84 1016.2
20260904142902 80 169 3.0 8.0 0.00 0.00 0.00 84 1016.2
20260904142356 80 217 3.0 8.0 0.00 0.00 0.00 84 1016.2
20260904141850 80 165 2.0 7.0 0.00 0.00 0.00 85 1016.2
20260904141344 80 153 2.0 9.0 0.00 0.00 0.00 85 1016.0
20260904140838 80 205 2.0 9.0 0.00 0.00 0.00 86 1016.1
20260904140332 80 166 2.0 6.0 0.00 0.00 0.00 86 1016.1
20260904140059 79 182 1.0 6.0 0.00 0.00 0.00 86 1016.1
20260904135333 79 175 2.0 6.0 0.00 0.00 0.00 86 1016.2
20260904134308 79 181 1.0 7.0 0.00 0.00 0.00 87 1016.0
20260904134034 79 181 2.0 8.0 0.00 0.00 0.00 87 1016.0
20260904133256 79 177 2.0 8.0 0.00 0.00 0.00 87 1016.0
20260904132750 78 169 2.0 6.0 0.00 0.00 0.00 87 1015.9
20260904132244 78 175 3.0 8.0 0.00 0.00 0.00 87 1015.8
20260904131738 78 160 3.0 9.0 0.00 0.00 0.00 87 1015.8
20260904131232 78 195 1.0 6.0 0.00 0.00 0.00 87 1015.6
20260904130726 78 153 2.0 6.0 0.00 0.00 0.00 88 1015.5
20260904130452 78 155 2.0 6.0 0.00 0.00 0.00 87 1015.5
20260904125714 78 160 1.0 5.0 0.00 0.00 0.00 87 1015.4
20260904125439 78 161 1.0 7.0 0.00 0.00 0.00 88 1015.5
20260904124933 78 150 1.0 6.0 0.00 0.00 0.00 87 1015.5
20260904124157 78 147 1.0 4.0 0.00 0.00 0.00 87 1015.4
20260904123651 78 145 1.0 4.0 0.00 0.00 0.00 87 1015.3
20260904123145 78 134 1.0 5.0 0.00 0.00 0.00 87 1015.3
20260904122639 78 129 1.0 4.0 0.00 0.00 0.00 87 1015.2
20260904122136 78 179 1.0 6.0 0.00 0.00 0.00 87 1015.2
20260904121906 78 202 1.0 7.0 0.00 0.00 0.00 87 1015.2
20260904121136 78 153 1.0 7.0 0.00 0.00 0.00 87 1015.0
20260904120634 78 233 1.0 5.0 0.00 0.00 0.00 87 1015.0
20260904120132 78 171 2.0 5.0 0.00 0.00 0.00 87 1014.9
20260904115632 78 194 1.0 5.0 0.00 0.00 0.00 87 1015.0
20260904115132 78 169 1.0 5.0 0.00 0.00 0.00 87 1014.9
20260904114630 78 169 2.0 7.0 0.00 0.00 0.00 87 1014.9
20260904114130 78 142 2.0 8.0 0.00 0.00 0.00 87 1014.8
20260904113630 78 157 1.0 8.0 0.00 0.00 0.00 87 1014.8
20260904113129 78 178 2.0 5.0 0.00 0.00 0.00 87 1014.7
20260904112632 78 167 1.0 4.0 0.00 0.00 0.00 87 1014.7
20260904112131 78 167 1.0 6.0 0.00 0.00 0.00 86 1014.5
20260904111628 78 165 1.0 6.0 0.00 0.00 0.00 86 1014.5
20260904111128 78 157 1.0 6.0 0.00 0.00 0.00 86 1014.3
20260904110628 78 154 1.0 6.0 0.00 0.00 0.00 86 1014.4
20260904110128 78 197 1.0 6.0 0.00 0.00 0.00 85 1014.3
20260904105624 79 211 1.0 6.0 0.00 0.00 0.00 85 1014.4
20260904105123 79 194 1.0 5.0 0.00 0.00 0.00 85 1014.4
20260904104623 79 178 1.0 6.0 0.00 0.00 0.00 85 1014.4
20260904104123 79 166 1.0 6.0 0.00 0.00 0.00 85 1014.5
20260904103624 79 148 1.0 5.0 0.00 0.00 0.00 85 1014.4
20260904103124 79 196 2.0 5.0 0.00 0.00 0.00 85 1014.4
20260904102624 79 190 2.0 6.0 0.00 0.00 0.00 84 1014.4
20260904101624 79 191 2.0 6.0 0.00 0.00 0.00 84 1014.4
20260904101123 79 225 2.0 9.0 0.00 0.00 0.00 84 1014.4
20260904100623 79 267 2.0 10.0 0.00 0.00 0.00 84 1014.4
20260904100123 79 182 1.0 10.0 0.00 0.00 0.00 83 1014.3
20260904095854 79 222 1.0 5.0 0.00 0.00 0.00 84 1014.3
20260904095123 79 208 2.0 6.0 0.00 0.00 0.00 84 1014.3
20260904094623 79 355 1.0 6.0 0.00 0.00 0.00 84 1014.4
20260904094353 79 169 1.0 6.0 0.00 0.00 0.00 84 1014.3
20260904093622 79 227 2.0 10.0 0.00 0.00 0.00 84 1014.3
20260904093122 79 208 3.0 10.0 0.00 0.00 0.00 84 1014.3
20260904092621 79 205 3.0 7.0 0.00 0.00 0.00 84 1014.3
20260904092115 79 173 2.0 7.0 0.00 0.00 0.00 83 1014.3
20260904091609 79 176 3.0 7.0 0.00 0.00 0.00 83 1014.3
20260904091103 79 239 2.0 9.0 0.00 0.00 0.00 83 1014.3
20260904090556 79 194 2.0 9.0 0.00 0.00 0.00 83 1014.4
20260904090050 79 180 2.0 6.0 0.00 0.00 0.00 84 1014.3
20260904085545 79 239 2.0 6.0 0.00 0.00 0.00 83 1014.4
20260904085038 79 201 2.0 7.0 0.00 0.00 0.00 84 1014.3
20260904084533 79 165 2.0 7.0 0.00 0.00 0.00 83 1014.3
20260904084257 79 187 2.0 7.0 0.00 0.00 0.00 83 1014.5
20260904083014 79 123 3.0 8.0 0.00 0.00 0.00 83 1014.4
20260904082738 79 225 2.0 8.0 0.00 0.00 0.00 83 1014.4
20260904082231 79 269 1.0 7.0 0.00 0.00 0.00 83 1014.4
20260904081455 79 202 1.0 5.0 0.00 0.00 0.00 83 1014.5
20260904081219 79 169 1.0 8.0 0.00 0.00 0.00 83 1014.5
20260904080443 79 180 1.0 8.0 0.00 0.00 0.00 83 1014.5
20260904075937 79 192 1.0 7.0 0.00 0.00 0.00 83 1014.6
20260904075431 79 155 2.0 7.0 0.00 0.00 0.00 83 1014.5
20260904074925 79 150 2.0 7.0 0.00 0.00 0.00 83 1014.6
20260904074650 80 218 1.0 6.0 0.00 0.00 0.00 82 1014.7
20260904073914 80 157 1.0 6.0 0.00 0.00 0.00 82 1014.7